Previsão horária em Abalos

Hoje, 29 Setembro, Terça-feira

Tempo Temperatura Precipitação Vento Pressão Humidade
00:00 +9°C° 0 mm 0 m/s 717 mmHg 84%
01:00 +9°C° 0 mm 0 m/s 717 mmHg 83%
02:00 +9°C° 0 mm 0 m/s 716 mmHg 81%
03:00 +9°C° 0 mm 0 m/s 716 mmHg 80%
04:00 +8°C° 0 mm 0 m/s 716 mmHg 78%
05:00 +8°C° 0 mm 0 m/s 716 mmHg 77%
06:00 +8°C° 0 mm 0 m/s 716 mmHg 76%
07:00 +10°C° 0 mm 0 m/s 717 mmHg 67%
08:00 +13°C° 0 mm 0 m/s 717 mmHg 59%
09:00 +15°C° 0 mm 0 m/s 717 mmHg 51%
10:00 +17°C° 0 mm 0 m/s 717 mmHg 45%
11:00 +20°C° 0 mm 1 m/s 717 mmHg 39%
12:00 +22°C° 0 mm 1 m/s 718 mmHg 34%
13:00 +23°C° 0 mm 1 m/s 717 mmHg 33%
14:00 +23°C° 0 mm 1 m/s 717 mmHg 32%
15:00 +24°C° 0 mm 1 m/s 716 mmHg 31%
16:00 +21°C° 0 mm 1 m/s 716 mmHg 38%
17:00 +19°C° 0 mm 1 m/s 716 mmHg 44%
18:00 +16°C° 0 mm 1 m/s 715 mmHg 50%
19:00 +14°C° 0 mm 0 m/s 716 mmHg 53%
20:00 +14°C° 0 mm 0 m/s 716 mmHg 56%
21:00 +13°C° 0 mm 0 m/s 716 mmHg 59%
22:00 +13°C° 0 mm 0 m/s 716 mmHg 59%
23:00 +12°C° 0 mm 0 m/s 716 mmHg 58%

Amanhã, 30 Setembro, Quarta-feira

Tempo Temperatura Precipitação Vento Pressão Humidade
00:00 +13°C° 0 mm 1 m/s 715 mmHg 57%
01:00 +13°C° 0 mm 1 m/s 715 mmHg 56%
02:00 +12°C° 0 mm 1 m/s 715 mmHg 56%
03:00 +12°C° 0 mm 1 m/s 714 mmHg 55%
04:00 +12°C° 0 mm 1 m/s 714 mmHg 54%
05:00 +12°C° 0 mm 1 m/s 714 mmHg 54%
06:00 +12°C° 0 mm 1 m/s 714 mmHg 54%
07:00 +14°C° 0 mm 1 m/s 715 mmHg 48%
08:00 +18°C° 0 mm 1 m/s 715 mmHg 43%
09:00 +20°C° 0 mm 1 m/s 715 mmHg 37%
10:00 +22°C° 0 mm 1 m/s 715 mmHg 34%
11:00 +24°C° 0 mm 1 m/s 715 mmHg 31%
12:00 +25°C° 0 mm 2 m/s 715 mmHg 27%
13:00 +26°C° 0 mm 2 m/s 714 mmHg 27%
14:00 +26°C° 0 mm 2 m/s 714 mmHg 27%
15:00 +27°C° 0 mm 2 m/s 714 mmHg 27%
16:00 +24°C° 0 mm 2 m/s 713 mmHg 36%
17:00 +21°C° 0 mm 1 m/s 713 mmHg 44%
18:00 +19°C° 0 mm 1 m/s 712 mmHg 53%
19:00 +18°C° 0 mm 1 m/s 712 mmHg 59%
20:00 +16°C° 0 mm 1 m/s 712 mmHg 65%
21:00 +15°C° 0 mm 1 m/s 712 mmHg 71%
22:00 +14°C° 0 mm 1 m/s 712 mmHg 72%
23:00 +14°C° 0 mm 1 m/s 712 mmHg 73%

Depois de amanhã, 1 Outubro, Quinta-feira

Tempo Temperatura Precipitação Vento Pressão Humidade
00:00 +14°C° 0 mm 1 m/s 712 mmHg 75%
01:00 +13°C° 0 mm 1 m/s 711 mmHg 75%
02:00 +13°C° 0 mm 1 m/s 711 mmHg 75%
03:00 +13°C° 0 mm 1 m/s 711 mmHg 74%
04:00 +13°C° 0 mm 1 m/s 711 mmHg 74%
05:00 +13°C° 0 mm 1 m/s 711 mmHg 74%
06:00 +12°C° 0 mm 1 m/s 711 mmHg 74%
07:00 +14°C° 0 mm 1 m/s 711 mmHg 70%
08:00 +16°C° 0 mm 1 m/s 711 mmHg 65%
09:00 +17°C° 0 mm 2 m/s 712 mmHg 60%
10:00 +18°C° 0 mm 2 m/s 711 mmHg 57%
11:00 +19°C° 0 mm 3 m/s 711 mmHg 54%
12:00 +20°C° 0 mm 3 m/s 711 mmHg 52%
13:00 +20°C° 0 mm 3 m/s 711 mmHg 52%
14:00 +20°C° 0 mm 3 m/s 710 mmHg 52%
15:00 +20°C° 0 mm 3 m/s 710 mmHg 53%
16:00 +18°C° 0 mm 2 m/s 709 mmHg 61%
17:00 +17°C° 0 mm 2 m/s 708 mmHg 70%
18:00 +15°C° 0 mm 1 m/s 708 mmHg 79%
19:00 +14°C° 0 mm 1 m/s 707 mmHg 81%
20:00 +14°C° 0 mm 1 m/s 707 mmHg 83%
21:00 +13°C° 0 mm 1 m/s 706 mmHg 85%
22:00 +13°C° 0 mm 2 m/s 705 mmHg 82%
23:00 +13°C° 0 mm 2 m/s 704 mmHg 80%

2 Outubro, Sexta-feira

Tempo Temperatura Precipitação Vento Pressão Humidade
00:00 +12°C° 0 mm 3 m/s 703 mmHg 78%
01:00 +12°C° 0.1 mm 3 m/s 702 mmHg 76%
02:00 +12°C° 0.1 mm 4 m/s 701 mmHg 75%
03:00 +12°C° 0.1 mm 4 m/s 701 mmHg 73%
04:00 +12°C° 0.7 mm 4 m/s 700 mmHg 78%
05:00 +12°C° 0.7 mm 4 m/s 699 mmHg 82%
06:00 +12°C° 0.7 mm 3 m/s 698 mmHg 86%
07:00 +11°C° 1.6 mm 4 m/s 698 mmHg 86%
08:00 +9°C° 1.6 mm 5 m/s 698 mmHg 86%
09:00 +6°C° 1.6 mm 7 m/s 698 mmHg 86%
10:00 +8°C° 1.4 mm 6 m/s 698 mmHg 79%
11:00 +9°C° 1.4 mm 5 m/s 699 mmHg 72%
12:00 +11°C° 1.4 mm 4 m/s 700 mmHg 66%
13:00 +10°C° 0.6 mm 5 m/s 700 mmHg 65%
14:00 +10°C° 0.6 mm 5 m/s 700 mmHg 64%
15:00 +10°C° 0.6 mm 6 m/s 700 mmHg 64%
16:00 +9°C° 0.4 mm 5 m/s 700 mmHg 68%
17:00 +8°C° 0.4 mm 4 m/s 700 mmHg 73%
18:00 +8°C° 0.4 mm 2 m/s 700 mmHg 77%
19:00 +8°C° 0.1 mm 3 m/s 701 mmHg 76%
20:00 +7°C° 0.1 mm 4 m/s 701 mmHg 75%
21:00 +7°C° 0.1 mm 4 m/s 702 mmHg 74%
22:00 +6°C° 0.9 mm 5 m/s 702 mmHg 77%
23:00 +6°C° 0.9 mm 5 m/s 702 mmHg 81%

3 Outubro, Sábado

Tempo Temperatura Precipitação Vento Pressão Humidade
00:00 +6°C° 0.9 mm 5 m/s 703 mmHg 85%
01:00 +6°C° 0.7 mm 5 m/s 703 mmHg 83%
02:00 +6°C° 0.7 mm 5 m/s 703 mmHg 82%
03:00 +6°C° 0.7 mm 5 m/s 704 mmHg 80%
04:00 +6°C° 0 mm 5 m/s 704 mmHg 79%
05:00 +6°C° 0 mm 5 m/s 704 mmHg 78%
06:00 +5°C° 0 mm 5 m/s 704 mmHg 77%
07:00 +5°C° 0 mm 6 m/s 704 mmHg 73%
08:00 +6°C° 0 mm 7 m/s 705 mmHg 70%
09:00 +9°C° 0 mm 7 m/s 705 mmHg 66%
10:00 +10°C° 0 mm 8 m/s 705 mmHg 62%
11:00 +11°C° 0 mm 8 m/s 705 mmHg 58%
12:00 +12°C° 0 mm 8 m/s 706 mmHg 53%
13:00 +12°C° 0 mm 7 m/s 706 mmHg 50%
14:00 +14°C° 0 mm 7 m/s 706 mmHg 48%
15:00 +14°C° 0 mm 6 m/s 706 mmHg 45%
16:00 +13°C° 0 mm 5 m/s 706 mmHg 50%
17:00 +12°C° 0 mm 4 m/s 706 mmHg 55%
18:00 +11°C° 0 mm 3 m/s 706 mmHg 60%
19:00 +10°C° 0 mm 3 m/s 706 mmHg 63%
20:00 +9°C° 0 mm 3 m/s 706 mmHg 65%
21:00 +8°C° 0 mm 3 m/s 706 mmHg 67%
22:00 +8°C° 0 mm 3 m/s 706 mmHg 68%
23:00 +8°C° 0 mm 3 m/s 705 mmHg 69%

4 Outubro, Domingo

Tempo Temperatura Precipitação Vento Pressão Humidade
00:00 +8°C° 0 mm 3 m/s 704 mmHg 69%
01:00 +8°C° 0.6 mm 3 m/s 704 mmHg 74%
02:00 +8°C° 0.6 mm 3 m/s 703 mmHg 79%
03:00 +9°C° 0.6 mm 3 m/s 703 mmHg 84%
04:00 +9°C° 0.6 mm 3 m/s 703 mmHg 84%
05:00 +9°C° 0.6 mm 3 m/s 704 mmHg 84%
06:00 +9°C° 0.6 mm 2 m/s 704 mmHg 85%
07:00 +10°C° 0.3 mm 3 m/s 704 mmHg 79%
08:00 +11°C° 0.3 mm 4 m/s 705 mmHg 73%
09:00 +12°C° 0.3 mm 5 m/s 705 mmHg 68%
10:00 +13°C° 0.1 mm 6 m/s 706 mmHg 62%
11:00 +14°C° 0.1 mm 7 m/s 706 mmHg 57%
12:00 +15°C° 0.1 mm 7 m/s 706 mmHg 51%
13:00 +15°C° 0.2 mm 7 m/s 706 mmHg 50%
14:00 +15°C° 0.2 mm 7 m/s 706 mmHg 49%
15:00 +15°C° 0.2 mm 7 m/s 706 mmHg 48%
16:00 +13°C° 0.4 mm 6 m/s 706 mmHg 59%
17:00 +12°C° 0.4 mm 5 m/s 706 mmHg 69%
18:00 +10°C° 0.4 mm 4 m/s 706 mmHg 80%
19:00 +10°C° 1 mm 3 m/s 707 mmHg 83%
20:00 +9°C° 1 mm 3 m/s 707 mmHg 86%
21:00 +9°C° 1 mm 2 m/s 707 mmHg 89%
22:00 +9°C° 0.3 mm 2 m/s 707 mmHg 88%
23:00 +9°C° 0.3 mm 2 m/s 708 mmHg 87%
Mostrar mais